Location: ????????
(55.4000°N, 39.1167°E)
Time: 08:09:45
(UTC+00:00)

Nadezhda 3 Rocket - Pass Details

Date: 19 May 2025
Orbit: 957 x 997 km, 82.9° (Epoch: 23 June)

Event Time Altitude Azimuth Distance (km) Brightness Sun altitude
Exits shadow 19:37:19 14° 170° (S) 2,419 5.5 -11.5°
Maximum altitude 19:42:36 60° 94° (E) 1,104 4.2 -11.8°
Drops below altitude 10° 19:48:45 10° 16° (NNE) 2,742 7.2 -12.2°
Sets 19:51:19 0° 13° (NNE) 3,700 8.0 -12.3°
